Tracking 19796 objects as of 19-Jul-2019
HD Live streaming from Space Station
objects crossing your sky now

BS-3A (YURI 3A)

Track BS-3A (YURI 3A) now!
BS-3A (YURI 3A) is classified as:


NORAD ID: 20771
Int'l Code: 1990-077A
Perigee: 36,171.2 km
Apogee: 36,245.7 km
Inclination: 15.2 °
Period: 1,457.3 minutes
Semi major axis: 42579 km
RCS: 1.6597 m2 (large)
Launch date: August 28, 1990
Source: Japan (JPN)
Launch site: TANEGASHIMA SPACE CENTER (TNSTA)
aabbcc
Your satellite tracking list
Your tracking list is empty




NASA's NSSDC Master Catalog

Two Line Element Set (TLE):
1 20771U 90077A   19199.44748719 -.00000112  00000-0  00000+0 0  9997
2 20771  15.2424  18.2085 0008744 220.7940 143.0904  0.98810503110601
Source of the keplerian elements: AFSPC